Location: Bastelaar
(51.0950°N, 3.8602°E)
Time: 01:23:50
(UTC+00:00)

ARIANE 6 FM1 Upper Stage - Pass Details

Date: 02 February 2026
Orbit: 522 x 609 km, 62.0° (Epoch: 13 February)

Event Time Altitude Azimuth Distance (km) Brightness Sun altitude
Rises 19:14:01 0° 295° (WNW) 2,677 7.3 -24.7°
Reaches altitude 10° 19:16:52 10° 316° (NW) 1,777 5.8 -25.2°
Enters shadow 19:19:08 17° 351° (N) 1,393 4.8 -25.5°
